• în Republica Moldova
  • Lista ţărilor
  • Pe 7 zile
  • Temperatura apei
  • Hartă satelitară
  • Meteo pe hartă
  • Widget-uri
  • user-avatar
    Intrare

    Meteo pe oră la Sidi Bu-l-Abbas

    Astăzi, 27 Aprilie, Joi

    Timp Temperatura Precipitaţii Vânt Presiune Umiditate
    00:00 +15°C° 0,1 mm 2 m/s 715 mmHg 81%
    01:00 +15°C° 0 mm 2 m/s 715 mmHg 81%
    02:00 +15°C° 0 mm 2 m/s 715 mmHg 81%
    03:00 +15°C° 0 mm 2 m/s 715 mmHg 80%
    04:00 +15°C° 0 mm 2 m/s 715 mmHg 79%
    05:00 +15°C° 0 mm 1 m/s 715 mmHg 78%
    06:00 +16°C° 0 mm 1 m/s 714 mmHg 76%
    07:00 +18°C° 0 mm 2 m/s 715 mmHg 66%
    08:00 +20°C° 0 mm 2 m/s 715 mmHg 55%
    09:00 +24°C° 0 mm 2 m/s 716 mmHg 44%
    10:00 +25°C° 0 mm 3 m/s 716 mmHg 42%
    11:00 +25°C° 0 mm 3 m/s 716 mmHg 39%
    12:00 +26°C° 0 mm 4 m/s 716 mmHg 37%
    13:00 +26°C° 0 mm 4 m/s 716 mmHg 38%
    14:00 +26°C° 0 mm 4 m/s 716 mmHg 39%
    15:00 +25°C° 0 mm 4 m/s 716 mmHg 40%
    16:00 +23°C° 0 mm 4 m/s 716 mmHg 45%
    17:00 +21°C° 0 mm 4 m/s 716 mmHg 50%
    18:00 +20°C° 0 mm 3 m/s 716 mmHg 55%
    19:00 +18°C° 0 mm 3 m/s 716 mmHg 65%
    20:00 +16°C° 0 mm 2 m/s 717 mmHg 75%
    21:00 +14°C° 0 mm 2 m/s 717 mmHg 85%
    22:00 +14°C° 0 mm 2 m/s 717 mmHg 87%
    23:00 +13°C° 0 mm 2 m/s 717 mmHg 90%

    Mâine, 28 Aprilie, Vineri

    Timp Temperatura Precipitaţii Vânt Presiune Umiditate
    00:00 +13°C° 0 mm 2 m/s 717 mmHg 92%
    01:00 +13°C° 0 mm 2 m/s 717 mmHg 92%
    02:00 +13°C° 0 mm 2 m/s 717 mmHg 92%
    03:00 +13°C° 0 mm 2 m/s 716 mmHg 92%
    04:00 +13°C° 0 mm 2 m/s 717 mmHg 91%
    05:00 +13°C° 0 mm 2 m/s 717 mmHg 91%
    06:00 +14°C° 0 mm 2 m/s 717 mmHg 90%
    07:00 +16°C° 0 mm 2 m/s 717 mmHg 80%
    08:00 +17°C° 0 mm 2 m/s 717 mmHg 70%
    09:00 +19°C° 0 mm 2 m/s 718 mmHg 61%
    10:00 +21°C° 0,1 mm 3 m/s 718 mmHg 56%
    11:00 +22°C° 0,1 mm 3 m/s 717 mmHg 52%
    12:00 +25°C° 0,1 mm 3 m/s 717 mmHg 47%
    13:00 +23°C° 0,1 mm 4 m/s 717 mmHg 48%
    14:00 +23°C° 0,1 mm 4 m/s 716 mmHg 49%
    15:00 +23°C° 0,1 mm 5 m/s 716 mmHg 50%
    16:00 +22°C° 0,2 mm 4 m/s 716 mmHg 57%
    17:00 +20°C° 0,2 mm 4 m/s 716 mmHg 64%
    18:00 +19°C° 0,2 mm 4 m/s 715 mmHg 71%
    19:00 +18°C° 0,2 mm 3 m/s 716 mmHg 77%
    20:00 +17°C° 0,2 mm 3 m/s 717 mmHg 82%
    21:00 +16°C° 0,2 mm 2 m/s 717 mmHg 88%
    22:00 +15°C° 0,3 mm 2 m/s 717 mmHg 89%
    23:00 +15°C° 0,3 mm 1 m/s 717 mmHg 90%

    Poimâine, 29 Aprilie, Sâmbătă

    Timp Temperatura Precipitaţii Vânt Presiune Umiditate
    00:00 +15°C° 0,3 mm 1 m/s 717 mmHg 91%
    01:00 +15°C° 0,2 mm 1 m/s 717 mmHg 92%
    02:00 +14°C° 0,2 mm 1 m/s 717 mmHg 93%
    03:00 +14°C° 0,2 mm 1 m/s 717 mmHg 94%
    04:00 +14°C° 0 mm 1 m/s 717 mmHg 93%
    05:00 +14°C° 0 mm 1 m/s 717 mmHg 93%
    06:00 +14°C° 0 mm 1 m/s 717 mmHg 93%
    07:00 +16°C° 0 mm 1 m/s 717 mmHg 83%
    08:00 +19°C° 0 mm 1 m/s 717 mmHg 74%
    09:00 +21°C° 0 mm 1 m/s 718 mmHg 64%
    10:00 +21°C° 0 mm 2 m/s 718 mmHg 58%
    11:00 +22°C° 0 mm 3 m/s 718 mmHg 51%
    12:00 +25°C° 0 mm 3 m/s 718 mmHg 45%
    13:00 +25°C° 0,1 mm 3 m/s 717 mmHg 45%
    14:00 +25°C° 0,1 mm 3 m/s 717 mmHg 44%
    15:00 +25°C° 0,1 mm 4 m/s 717 mmHg 44%
    16:00 +24°C° 0 mm 3 m/s 716 mmHg 49%
    17:00 +22°C° 0 mm 3 m/s 716 mmHg 53%
    18:00 +21°C° 0 mm 2 m/s 716 mmHg 57%
    19:00 +19°C° 0,1 mm 2 m/s 716 mmHg 65%
    20:00 +19°C° 0,1 mm 1 m/s 717 mmHg 72%
    21:00 +16°C° 0,1 mm 1 m/s 717 mmHg 80%
    22:00 +16°C° 0,1 mm 1 m/s 717 mmHg 81%
    23:00 +15°C° 0,1 mm 1 m/s 717 mmHg 82%

    30 Aprilie, Duminică

    Timp Temperatura Precipitaţii Vânt Presiune Umiditate
    00:00 +15°C° 0,1 mm 1 m/s 717 mmHg 83%
    01:00 +15°C° 0 mm 1 m/s 717 mmHg 83%
    02:00 +15°C° 0 mm 1 m/s 717 mmHg 83%
    03:00 +15°C° 0 mm 1 m/s 716 mmHg 84%
    04:00 +15°C° 0 mm 1 m/s 717 mmHg 84%
    05:00 +14°C° 0 mm 0 m/s 717 mmHg 84%
    06:00 +14°C° 0 mm 0 m/s 717 mmHg 84%
    07:00 +18°C° 0 mm 1 m/s 717 mmHg 74%
    08:00 +20°C° 0 mm 1 m/s 718 mmHg 64%
    09:00 +22°C° 0 mm 1 m/s 718 mmHg 53%
    10:00 +23°C° 0 mm 2 m/s 718 mmHg 50%
    11:00 +24°C° 0 mm 3 m/s 718 mmHg 46%
    12:00 +25°C° 0 mm 4 m/s 718 mmHg 43%
    13:00 +25°C° 0 mm 5 m/s 718 mmHg 45%
    14:00 +23°C° 0 mm 5 m/s 717 mmHg 48%
    15:00 +23°C° 0 mm 6 m/s 717 mmHg 50%
    16:00 +22°C° 0 mm 5 m/s 717 mmHg 55%
    17:00 +20°C° 0 mm 5 m/s 717 mmHg 60%
    18:00 +19°C° 0 mm 4 m/s 717 mmHg 65%
    19:00 +17°C° 0 mm 4 m/s 718 mmHg 71%
    20:00 +16°C° 0 mm 3 m/s 718 mmHg 77%
    21:00 +14°C° 0 mm 3 m/s 719 mmHg 83%
    22:00 +14°C° 0 mm 3 m/s 719 mmHg 82%
    23:00 +13°C° 0 mm 3 m/s 719 mmHg 82%

    1 Mai, Luni

    Timp Temperatura Precipitaţii Vânt Presiune Umiditate
    00:00 +13°C° 0 mm 3 m/s 719 mmHg 82%
    01:00 +13°C° 0 mm 3 m/s 719 mmHg 84%
    02:00 +12°C° 0 mm 3 m/s 719 mmHg 85%
    03:00 +12°C° 0 mm 3 m/s 719 mmHg 87%
    04:00 +12°C° 0 mm 3 m/s 719 mmHg 85%
    05:00 +13°C° 0 mm 3 m/s 720 mmHg 84%
    06:00 +13°C° 0 mm 3 m/s 720 mmHg 82%
    07:00 +14°C° 0,1 mm 3 m/s 721 mmHg 76%
    08:00 +15°C° 0,1 mm 4 m/s 722 mmHg 70%
    09:00 +17°C° 0,1 mm 4 m/s 722 mmHg 64%
    10:00 +18°C° 0 mm 4 m/s 722 mmHg 58%
    11:00 +17°C° 0 mm 5 m/s 722 mmHg 53%
    12:00 +19°C° 0 mm 5 m/s 722 mmHg 47%
    13:00 +20°C° 0 mm 5 m/s 722 mmHg 45%
    14:00 +20°C° 0 mm 4 m/s 722 mmHg 43%
    15:00 +20°C° 0 mm 4 m/s 722 mmHg 40%
    16:00 +19°C° 0 mm 4 m/s 722 mmHg 43%
    17:00 +18°C° 0 mm 3 m/s 722 mmHg 45%
    18:00 +17°C° 0 mm 3 m/s 722 mmHg 47%
    19:00 +15°C° 0 mm 2 m/s 722 mmHg 55%
    20:00 +13°C° 0 mm 2 m/s 723 mmHg 62%
    21:00 +11°C° 0 mm 1 m/s 723 mmHg 69%
    22:00 +11°C° 0 mm 1 m/s 723 mmHg 70%
    23:00 +10°C° 0 mm 1 m/s 722 mmHg 71%

    2 Mai, Marţi

    Timp Temperatura Precipitaţii Vânt Presiune Umiditate
    00:00 +10°C° 0 mm 1 m/s 722 mmHg 72%
    01:00 +10°C° 0 mm 1 m/s 722 mmHg 72%
    02:00 +9°C° 0 mm 1 m/s 722 mmHg 73%
    03:00 +9°C° 0 mm 1 m/s 722 mmHg 73%
    04:00 +10°C° 0 mm 1 m/s 722 mmHg 69%
    05:00 +10°C° 0 mm 1 m/s 722 mmHg 64%
    06:00 +11°C° 0 mm 1 m/s 722 mmHg 60%
    07:00 +14°C° 0 mm 2 m/s 722 mmHg 48%
    08:00 +17°C° 0 mm 2 m/s 723 mmHg 37%
    09:00 +20°C° 0 mm 3 m/s 723 mmHg 26%
    10:00 +21°C° 0 mm 3 m/s 723 mmHg 24%
    11:00 +24°C° 0 mm 3 m/s 723 mmHg 22%
    12:00 +25°C° 0 mm 4 m/s 722 mmHg 20%
    13:00 +26°C° 0 mm 4 m/s 722 mmHg 21%
    14:00 +26°C° 0 mm 4 m/s 721 mmHg 21%
    15:00 +26°C° 0 mm 5 m/s 721 mmHg 22%
    16:00 +25°C° 0 mm 5 m/s 720 mmHg 26%
    17:00 +22°C° 0 mm 5 m/s 720 mmHg 30%
    18:00 +20°C° 0 mm 5 m/s 720 mmHg 34%
    19:00 +18°C° 0 mm 4 m/s 720 mmHg 41%
    20:00 +16°C° 0 mm 3 m/s 720 mmHg 48%
    21:00 +14°C° 0 mm 2 m/s 720 mmHg 56%
    22:00 +13°C° 0 mm 2 m/s 720 mmHg 58%
    23:00 +13°C° 0 mm 2 m/s 720 mmHg 60%
    Arată mai mult